This demonstration page uses our WeatherBlox Daily Observations layout. Learn more.

Left ArrowRight Arrow

Hourly Observations for May 26, 2017

Temp ( °F °C ) Dew Point ( °F °C ) Humidity (%) Winds ( mph kmh ) Pressure ( in mb ) Visibility ( mi km ) Precip ( " mm )
12:54 am 00:54 Mostly Cloudy 67 19.4 56 13.3 68 68 S 10 17 29.62 1003 10 16.0934 0 0.0254
1:54 am 01:54 Clear 66 18.9 57 13.9 73 73 SSE 6 9 29.6 1002 10 16.0934 0 0
2:54 am 02:54 Partly Cloudy 66 18.9 57 13.9 73 73 Calm 29.6 1003 10 16.0934 0 0
3:54 am 03:54 Mostly Cloudy 63 17.2 58 14.4 84 84 ENE 7 11 29.59 1002 10 16.0934 0 0
4:54 am 04:54 Mostly Clear 64 17.8 57 13.9 78 78 W 8 13 29.64 1004 10 16.0934 0 0
5:54 am 05:54 Partly Cloudy 62 16.7 58 14.4 86 86 E 3 6 29.64 1004 10 16.0934 0 0
6:54 am 06:54 Mostly Sunny 63 17.2 58 14.4 84 84 NW 7 11 29.69 1005 10 16.0934 0 0
7:54 am 07:54 Sunny 66 18.9 57 13.9 73 73 NNW 14 22 29.71 1006 10 16.0934 0 0
8:54 am 08:54 Sunny 68 20 54 12.2 61 61 N 17 28 29.74 1007 10 16.0934 0 0
9:54 am 09:54 Sunny 70 21.1 52 11.1 53 53 NNW 15 24 29.76 1008 10 16.0934 0 0
10:54 am 10:54 Sunny 72 22.2 51 10.6 48 48 N 16 26 29.77 1008 10 16.0934 0 0
11:54 am 11:54 Sunny 75 23.9 52 11.1 45 45 N 13 20 29.79 1009 10 16.0934 0 0
12:54 pm 12:54 Sunny 77 25 51 10.6 40 40 N 14 22 29.79 1009 10 16.0934 0 0
1:54 pm 13:54 Sunny 78 25.6 51 10.6 39 39 N 13 20 29.8 1009 10 16.0934 0 0
2:54 pm 14:54 Sunny 80 26.7 52 11.1 38 38 N 13 20 29.79 1009 10 16.0934 0 0
3:54 pm 15:54 Sunny 80 26.7 51 10.6 37 37 NNE 9 15 29.79 1009 10 16.0934 0 0
4:54 pm 16:54 Sunny 81 27.2 50 10 34 34 N 7 11 29.79 1009 10 16.0934 0 0
5:54 pm 17:54 Sunny 81 27.2 50 10 34 34 NNE 9 15 29.79 1009 10 16.0934 0 0
6:54 pm 18:54 Sunny 80 26.7 50 10 35 35 N 6 9 29.79 1009 10 16.0934 0 0
7:54 pm 19:54 Sunny 76 24.4 52 11.1 43 43 NE 7 11 29.8 1009 10 16.0934 0 0
8:54 pm 20:54 Clear 70 21.1 50 10 49 49 NE 6 9 29.82 1010 10 16.0934 0 0
9:54 pm 21:54 Clear 67 19.4 50 10 55 55 NE 8 13 29.83 1010 10 16.0934 0 0
10:54 pm 22:54 Clear 65 18.3 50 10 59 59 NE 5 7 29.84 1011 10 16.0934 0 0
11:54 pm 23:54 Clear 66 18.9 51 10.6 59 59 NNW 7 11 29.85 1011 10 16.0934 0 0

Powered by AerisWeather